Location: Unspecified
(30.7544°N, 0.0000°E)
Time: 06:07:17
(UTC+00:00)

Vanguard 2 - Visible Passes

Search period start: 04 April 2026 00:00
Search period end: 14 April 2026 00:00
Orbit: 554 x 2896 km, 32.9° (Epoch: 29 March)

Date Brightness Start Highest point End Pass type
(mag) Time Alt. Az. Time Alt. Az. Time Alt. Az.
4 Apr 9.9 20:01:46 10° WNW 20:12:56 71° SSW 20:21:32 34° SE visible
4 Apr 10.7 22:11:43 10° W 22:22:27 36° SW 22:22:27 36° SW visible
5 Apr 10.0 20:13:43 10° WNW 20:24:50 62° SSW 20:32:33 35° SE visible
5 Apr 10.9 22:24:21 10° W 22:33:29 29° SW 22:33:29 29° SW visible
6 Apr 10.1 20:25:46 10° W 20:36:43 53° SSW 20:43:38 35° SSE visible
6 Apr 11.2 22:37:24 10° W 22:44:34 22° SW 22:44:34 22° SW visible
7 Apr 9.5 18:29:19 10° WNW 18:37:59 80° SSW 18:52:29 10° ESE visible
7 Apr 10.3 20:37:54 10° W 20:48:36 44° SSW 20:54:45 32° SSE visible
7 Apr 11.4 22:51:12 10° WSW 22:55:41 16° SW 22:55:41 16° SW visible
8 Apr 9.6 18:41:14 10° WNW 18:49:54 70° SSW 19:04:16 10° ESE visible
8 Apr 10.6 20:50:12 10° W 21:00:29 36° SSW 21:05:56 29° S visible
9 Apr 9.7 18:53:10 10° W 19:01:48 60° SSW 19:15:53 10° SE visible
9 Apr 10.8 21:02:46 10° W 21:12:23 28° SSW 21:17:09 24° S visible
10 Apr 9.9 19:05:10 10° W 19:13:42 50° SSW 19:27:16 10° SE visible
10 Apr 11.1 21:15:46 10° WSW 21:24:19 22° SSW 21:28:25 19° SSW visible
11 Apr 10.2 19:17:17 10° W 19:25:37 41° SSW 19:38:26 10° SE visible
11 Apr 11.3 21:29:34 10° WSW 21:36:18 16° SSW 21:39:44 15° SSW visible
12 Apr 10.4 19:29:35 10° W 19:37:33 32° SSW 19:49:17 10° SSE visible
12 Apr 11.5 21:46:08 10° SW 21:48:20 10° SW 21:50:40 10° SSW visible
13 Apr 10.7 19:42:09 10° W 19:49:31 25° SSW 19:59:44 10° SSE visible
